Main page
METAR-TAF:

METAR-TAF

Airports :

Oil platform

Heimdal, Norway

latitude: 59-34-12N, longitude: 2-13-48E, elevation: 10 m

Current weather observation

The report was made 44 minutes ago, at 05:50 UTC
Wind 21 kt from the South/Southwest
Temperature 12°C
Humidity 100%
Pressure 1005 hPa
Visibility: 4500 m
mist

METAR: ENHM 190550Z AUTO 20021KT 4500NDV BR FEW008/// BKN021/// BKN052/// 12/12 Q1005 W12/S/

Time: 08:34 (06:34 UTC)


TAF: missing

Weather observations and forecasts of more than 4000 airports (METAR and TAF reports).

The available stations are represented by yellow and red dots on the map.

Hover mouse over dot to see the name of the station.

Then click to see weather observations and forecasts.

To change the map : click on the green buttons with a black cross to zoom in, on the green button with a dash to zoom out, or on the green arrows for adjacent maps.


METAR-TAF: